• Processing (Info)

  • MPEC 2013-M26 : 2013 MX5

    The following Minor Planet Electronic Circular may be linked-to from your own Web pages, but must not otherwise be redistributed electronically.

    A form allowing access to any MPEC is at the bottom of this page.


    Read MPEC 2013-M25 Read MPEC 2013-M27


    M.P.E.C. 2013-M26                                Issued 2013 June 21, 13:00 UT
    
         The Minor Planet Electronic Circulars contain information on unusual
             minor planets and routine data on comets.  They are published
       on behalf of Commission 20 of the International Astronomical Union by the
              Minor Planet Center, Smithsonian Astrophysical Observatory,
                              Cambridge, MA 02138, U.S.A.
    
                 Prepared using the Tamkin Foundation Computer Network
    
                                  MPC@CFA.HARVARD.EDU
                URL http://www.minorplanetcenter.net/    ISSN 1523-6714
    
                                       2013 MX5
    
    Observations:
         K13M05X* C2013 06 18.02525 21 52 27.00 -01 24 41.1          19.1 R EM026106
         K13M05X  C2013 06 18.03554 21 52 28.70 -01 24 19.5          18.7 R EM026106
         K13M05X  C2013 06 18.04584 21 52 30.33 -01 23 58.4          19.2 R EM026106
         K13M05X  C2013 06 18.05613 21 52 31.98 -01 23 37.8          19.0 R EM026106
         K13M05X KC2013 06 18.39333 21 53 27.98 -01 12 03.6          19.4 RqEM026H36
         K13M05X KC2013 06 18.39839 21 53 28.77 -01 11 53.5          19.1 RqEM026H36
         K13M05X KC2013 06 18.40341 21 53 29.54 -01 11 43.5          19.1 RqEM026H36
         K13M05X KC2013 06 19.01236 21 55 11.00 -00 50 55.4          19.3 RuEM026K57
         K13M05X KC2013 06 19.01703 21 55 11.76 -00 50 45.8          19.4 RuEM026K57
         K13M05X KC2013 06 19.02104 21 55 12.40 -00 50 37.6          19.3 RuEM026K57
         K13M05X KC2013 06 19.02357 21 55 12.78 -00 50 31.9          18.9 RrEM026106
         K13M05X KC2013 06 19.02612 21 55 13.21 -00 50 26.6          18.9 RrEM026106
         K13M05X KC2013 06 19.02867 21 55 13.59 -00 50 23.0          18.7 RrEM026106
         K13M05X KC2013 06 19.32839 21 56 03.23 -00 40 04.9          18.4  qEM026H36
         K13M05X KC2013 06 19.34196 21 56 05.42 -00 39 36.7          19.4  qEM026H36
         K13M05X KC2013 06 19.34831 21 56 06.44 -00 39 23.9          19.2  qEM026H36
         K13M05X KC2013 06 19.36998321 56 09.74 -00 38 39.2          19.7 VuEM026H21
         K13M05X KC2013 06 19.37397521 56 10.37 -00 38 31.0          19.8 VuEM026H21
         K13M05X KC2013 06 19.37881121 56 11.14 -00 38 20.9          19.8 VuEM026H21
         K13M05X HC2013 06 19.42496 21 56 18.90 -00 36 44.0          19.4 RoEM026291
         K13M05X HC2013 06 19.42646 21 56 19.13 -00 36 40.8          19.3 RoEM026291
         K13M05X HC2013 06 19.42796 21 56 19.37 -00 36 37.7          19.3 RoEM026291
         K13M05X KC2013 06 20.00273 21 57 54.28 -00 17 00.1          18.8 RrEM026106
         K13M05X KC2013 06 20.00616 21 57 54.84 -00 16 52.4          19.2 RrEM026106
         K13M05X KC2013 06 20.00959 21 57 55.40 -00 16 46.9          19.2 RrEM026106
         K13M05X KC2013 06 20.01302 21 57 55.92 -00 16 38.4          18.9 RrEM026106
         K13M05X |C2013 06 20.26048 21 58 36.61 -00 07 45.3          19.2 VuEM026807
         K13M05X |C2013 06 20.26296 21 58 37.00 -00 07 40.2          19.3 VuEM026807
         K13M05X |C2013 06 20.26544 21 58 37.40 -00 07 34.9          19.2 VuEM026807
         K13M05X |C2013 06 20.26792 21 58 37.79 -00 07 30.0          19.5 VuEM026807
         K13M05X |C2013 06 20.27040 21 58 38.18 -00 07 24.9          19.6 VuEM026807
         K13M05X KC2013 06 20.35790 21 58 52.38 -00 04 47.8          19.1  qEM026H36
         K13M05X KC2013 06 20.36084 21 58 52.79 -00 04 41.7          19.0  qEM026H36
         K13M05X KC2013 06 20.37563 21 58 55.12 -00 04 10.0          18.1  qEM026H36
         K13M05X KC2013 06 20.37803 21 58 55.47 -00 04 05.4          19.1  qEM026H36
         K13M05X 7C2013 06 20.44922 21 59 07.84 -00 01 34.4                tEM026F65
         K13M05X 7C2013 06 20.45203 21 59 08.32 -00 01 28.4          19.1 RtEM026F65
         K13M05X 7C2013 06 20.45486 21 59 08.77 -00 01 22.6                tEM026F65
         K13M05X |C2013 06 21.35276 22 01 34.25 +00 29 42.9          18.9 VuEM026807
         K13M05X |C2013 06 21.35699 22 01 34.91 +00 29 51.8          19.1 VuEM026807
         K13M05X |C2013 06 21.36058 22 01 35.47 +00 29 59.0          19.3 VuEM026807
    
    Observer details:
    106 Crni Vrh.  Observers S. Maticic, J. Zakrajsek, J. Skvarc.  Measurer
        H. Mikuz.  0.6-m f/3.3 Deltagraph + CCD, 0.60-m f/3.3 Deltagraph.
    291 LPL/Spacewatch II.  Observer J. V. Scotti.  1.8-m f/2.7 reflector + CCD.
    807 Cerro Tololo.  Observers T. Linder, R. Holmes.  0.41-m f/11
        Ritchey-Chretien + CCD.
    F65 Haleakala-Faulkes Telescope North.  Observers P. Miller, P. Roche,
        A. Tripp, R. Miles, R. Holmes, S. Foglia, L. Buzzi.  Measurers L. Buzzi,
        S. Foglia, T. Vorobjov, T. Lister.  2.0-m f/10 Ritchey-Chretien + CCD.
    H21 Astronomical Research Observatory, Westfield.  Observer R. Holmes.
        Measurers S. Foglia, L. Buzzi, H. Devore, A. Kostin, T. Linder, T. Lister,
        T. Vorobjov.  0.81-m f/4.0 astrograph + CCD.
    H36 Sandlot Observatory, Scranton.  Observer G. Hug.  0.56-m reflector + CCD.
    K57 Fiore Observatory.  Observer T. Pupat.  Measurers T. Pupat, V. Gonano.
        0.38-m f/4.4 Newtonian reflector + CCD.
    
    Orbital elements:
    2013 MX5                                                 Earth MOID = 0.2599 AU
    Epoch 2013 Apr. 18.0 TT = JDT 2456400.5                 MPC
    M 336.81240              (2000.0)            P               Q
    n   0.27914996     Peri.   52.42254     +0.54102280     +0.83380968
    a   2.3186988      Node   250.67749     -0.80363765     +0.47407208
    e   0.4585536      Incl.    6.68165     -0.24791301     +0.28287289
    P   3.53           H   18.8           G   0.15           U   8
    Residuals in seconds of arc
    130618 106  0.0   0.5-    130619 H36  0.3+  0.2-    130620 807  0.0   0.1+
    130618 106  0.5+  0.1+    130619 H36  0.4+  0.4-    130620 807  0.0   0.1-
    130618 106  0.1-  0.1+    130619 H21  0.2+  0.1-    130620 807  0.1-  0.1-
    130618 106  0.3-  0.4-    130619 H21  0.1+  0.1-    130620 H36  0.4+  0.3-
    130618 H36  0.2+  0.6+    130619 H21  0.1+  0.1+    130620 H36  0.4-  0.3-
    130618 H36  0.1-  0.3+    130619 291  0.0   0.0     130620 H36  0.4-  1.0+
    130618 H36  0.6-  0.1+    130619 291  0.1-  0.2+    130620 H36  0.8-  0.7+
    130619 K57  0.1+  0.0     130619 291  0.1-  0.2+    130620 F65  0.1-  0.3-
    130619 K57  0.2+  0.0     130620 106  0.1-  0.2-    130620 F65  0.3+  0.1-
    130619 K57  0.1+  0.0     130620 106  0.1+  0.5+    130620 F65  0.3+  0.1-
    130619 106  0.1-  0.5+    130620 106  0.3+  1.1-    130621 807  0.0   0.1-
    130619 106  0.2+  0.6+    130620 106  0.2-  0.4+    130621 807  0.1+  0.1+
    130619 106  0.2-  1.0-    130620 807  0.1-  0.1-    130621 807  0.1+  0.1-
    130619 H36  0.0   0.5-    130620 807  0.1-  0.1-
    
    Ephemeris:
    2013 MX5                 a,e,i = 2.32, 0.46, 7                   q = 1.2555
    Date    TT    R. A. (2000) Decl.     Delta      r     Elong.  Phase     V
    2013 05 22    20 32 09.4 -15 12 47   0.5726  1.3524   114.3    43.0    19.9
    ...
    2013 06 06    21 17 46.3 -08 02 52   0.4892  1.3038   115.7    44.5    19.5
    ...
    2013 06 14    21 41 06.2 -03 41 02   0.4561  1.2841   116.2    45.2    19.4
    ...
    2013 06 20    21 57 53.0 -00 16 53   0.4361  1.2726   116.6    45.6    19.3
    2013 06 21    22 00 36.6 +00 17 25   0.4331  1.2709   116.7    45.6    19.2
    2013 06 22    22 03 18.9 +00 51 43   0.4303  1.2694   116.7    45.6    19.2
    ...
    2013 06 28    22 19 02.4 +04 16 33   0.4154  1.2617   117.2    45.8    19.1
    ...
    2013 07 06    22 38 24.1 +08 40 01   0.4004  1.2562   118.1    45.5    19.0
    ...
    2013 07 21    23 08 22.5 +15 47 21   0.3851  1.2606   121.5    43.4    18.9
    
    A. U. Tomatic                (C) Copyright 2013 MPC           M.P.E.C. 2013-M26
    

    Read MPEC 2013-M25 Read MPEC 2013-M27


    MPEC number:

    Enter an MPEC number in one of the following forms:

    • 1997-B01 (the full form)
    • J97B01 (the packed version of the full form)
    • B01 (the abbreviated form)